timestamp,wind_dir_avg,wind_spd_avg,wind_spd_max_dir,wind_spd_gust,battery_voltage,lat,long
2023-01-19 00:04:00+00:00,222.0,5.66,215.0,6.72,12.25,47.59359,-54.27349
2023-01-19 00:14:01+00:00,218.0,4.23,219.0,4.97,12.25,47.59359,-54.27349
2023-01-19 00:24:01+00:00,212.0,2.59,214.0,3.13,12.25,47.59359,-54.27349
2023-01-19 00:34:01+00:00,206.0,3.68,206.0,4.03,12.25,47.59359,-54.27349
2023-01-19 00:44:01+00:00,217.0,4.32,216.0,4.7,12.25,47.59359,-54.27349
2023-01-19 00:54:01+00:00,216.0,3.39,221.0,3.85,12.25,47.59359,-54.27349
2023-01-19 01:04:01+00:00,219.0,2.89,231.0,3.4,12.25,47.59359,-54.27349
2023-01-19 01:14:01+00:00,225.0,2.24,228.0,2.71,12.17,47.59359,-54.27349
2023-01-19 01:24:01+00:00,229.0,1.6,226.0,1.81,12.17,47.59359,-54.27349
2023-01-19 01:34:01+00:00,227.0,1.3,230.0,1.5,12.17,47.59359,-54.27349
2023-01-19 01:44:01+00:00,212.0,0.77,213.0,0.89,12.17,47.59359,-54.27349
2023-01-19 01:54:01+00:00,217.0,0.81,203.0,1.1,12.17,47.59359,-54.27349
2023-01-19 02:04:01+00:00,199.0,1.04,202.0,1.17,12.17,47.59359,-54.27349
2023-01-19 02:14:01+00:00,181.0,0.67,183.0,0.78,12.17,47.59359,-54.27349
2023-01-19 02:24:01+00:00,168.0,0.44,165.0,0.56,12.17,47.59359,-54.27349
2023-01-19 02:34:01+00:00,43.0,0.69,47.0,0.78,12.17,47.59359,-54.27349
2023-01-19 02:44:01+00:00,8.0,1.32,15.0,1.51,12.17,47.59359,-54.27349
2023-01-19 02:54:01+00:00,21.0,1.61,21.0,1.7,12.17,47.59359,-54.27349
2023-01-19 03:04:01+00:00,13.0,1.61,16.0,1.82,12.17,47.59359,-54.27349
2023-01-19 03:14:00+00:00,41.0,1.83,42.0,2.04,12.17,47.59359,-54.27349
2023-01-19 03:24:00+00:00,34.0,2.47,33.0,2.72,12.17,47.59359,-54.27349
2023-01-19 03:34:00+00:00,36.0,2.72,39.0,2.94,12.17,47.59359,-54.27349
2023-01-19 03:44:00+00:00,46.0,1.88,50.0,2.41,12.17,47.59359,-54.27349
2023-01-19 03:54:00+00:00,39.0,2.47,41.0,2.71,12.17,47.59359,-54.27349
2023-01-19 04:04:00+00:00,20.0,4.01,21.0,4.44,12.17,47.59359,-54.27349
2023-01-19 04:14:00+00:00,12.0,4.38,15.0,4.72,12.09,47.59359,-54.27349
2023-01-19 04:24:00+00:00,4.0,4.79,9.0,5.3,12.09,47.59359,-54.27349
2023-01-19 04:34:00+00:00,0.0,5.46,3.0,5.91,12.09,47.59359,-54.27349
2023-01-19 04:44:00+00:00,315.0,0.01,4.0,0.0,12.09,47.59359,-54.27349
2023-01-19 04:54:00+00:00,3.0,4.04,2.0,4.54,12.09,47.59359,-54.27349
2023-01-19 05:04:00+00:00,8.0,4.35,9.0,4.72,12.09,47.59359,-54.27349
2023-01-19 05:14:01+00:00,6.0,4.74,6.0,5.13,12.09,47.59359,-54.27349
2023-01-19 05:24:01+00:00,352.0,4.54,353.0,4.6,12.09,47.59359,-54.27349
2023-01-19 05:34:01+00:00,355.0,5.18,355.0,5.62,12.09,47.59359,-54.27349
2023-01-19 05:44:01+00:00,353.0,4.76,354.0,5.13,12.09,47.59359,-54.27349
2023-01-19 05:54:01+00:00,350.0,3.64,347.0,3.98,12.09,47.59359,-54.27349
2023-01-19 06:04:01+00:00,350.0,4.46,350.0,4.77,12.09,47.59359,-54.27349
2023-01-19 06:14:01+00:00,338.0,3.46,342.0,4.14,12.09,47.59359,-54.27349
2023-01-19 06:24:01+00:00,354.0,4.63,347.0,5.1,12.09,47.59359,-54.27349
2023-01-19 06:34:01+00:00,358.0,4.68,7.0,5.28,12.09,47.59359,-54.27349
2023-01-19 06:44:01+00:00,315.0,0.01,349.0,0.0,12.09,47.59359,-54.27349
2023-01-19 06:54:01+00:00,7.0,2.83,31.0,3.59,12.09,47.59359,-54.27349
2023-01-19 07:04:01+00:00,13.0,2.19,41.0,2.76,12.09,47.59359,-54.27349
2023-01-19 07:14:01+00:00,316.0,3.5,310.0,4.55,12.09,47.59359,-54.27349
2023-01-19 07:24:01+00:00,318.0,3.23,317.0,4.76,12.09,47.59359,-54.27349
2023-01-19 07:34:01+00:00,304.0,4.9,297.0,9.22,12.09,47.59359,-54.27349
2023-01-19 07:44:01+00:00,310.0,5.0,309.0,5.77,12.09,47.59359,-54.27349
2023-01-19 07:54:01+00:00,313.0,5.7,302.0,6.98,12.09,47.59359,-54.27349
2023-01-19 08:04:01+00:00,315.0,5.68,321.0,6.51,12.09,47.59359,-54.27349
2023-01-19 08:14:00+00:00,316.0,5.86,301.0,8.44,12.01,47.59359,-54.27349
2023-01-19 08:24:00+00:00,309.0,6.25,298.0,9.59,12.01,47.59359,-54.27349
2023-01-19 08:34:00+00:00,317.0,5.27,318.0,5.79,12.01,47.59359,-54.27349
2023-01-19 08:44:00+00:00,317.0,4.92,312.0,5.59,12.01,47.59359,-54.27349
2023-01-19 08:54:00+00:00,323.0,3.55,311.0,4.85,12.01,47.59359,-54.27349
2023-01-19 09:04:00+00:00,316.0,4.38,316.0,5.39,12.01,47.59359,-54.27349
2023-01-19 09:14:01+00:00,309.0,4.3,311.0,5.39,12.01,47.59359,-54.27349
2023-01-19 09:24:01+00:00,298.0,3.6,291.0,4.32,12.01,47.59359,-54.27349
2023-01-19 09:34:01+00:00,286.0,3.95,298.0,4.47,12.01,47.59359,-54.27349
2023-01-19 09:44:01+00:00,277.0,3.67,276.0,4.05,12.01,47.59359,-54.27349
2023-01-19 09:54:01+00:00,269.0,4.61,271.0,9.24,12.01,47.59359,-54.27349
2023-01-19 10:04:01+00:00,284.0,4.87,268.0,9.36,12.01,47.59359,-54.27349
2023-01-19 10:14:00+00:00,296.0,5.37,287.0,9.92,12.01,47.59359,-54.27349
2023-01-19 10:24:00+00:00,291.0,5.99,284.0,10.1,12.01,47.59359,-54.27349
2023-01-19 10:34:00+00:00,281.0,9.27,278.0,10.38,12.01,47.59359,-54.27349
2023-01-19 10:44:00+00:00,284.0,8.91,289.0,10.3,12.01,47.59359,-54.27349
2023-01-19 10:54:00+00:00,278.0,9.13,282.0,10.43,12.01,47.59359,-54.27349
2023-01-19 11:04:00+00:00,279.0,10.0,282.0,10.82,12.01,47.59359,-54.27349
2023-01-19 11:14:00+00:00,273.0,4.35,270.0,8.03,12.01,47.59359,-54.27349
2023-01-19 11:24:00+00:00,263.0,9.96,261.0,10.59,12.01,47.59359,-54.27349
2023-01-19 11:34:00+00:00,256.0,7.85,258.0,10.16,12.01,47.59359,-54.27349
2023-01-19 11:44:00+00:00,256.0,7.7,258.0,10.35,12.01,47.59359,-54.27349
2023-01-19 11:54:00+00:00,260.0,9.32,262.0,10.31,12.01,47.59359,-54.27349
2023-01-19 12:04:00+00:00,270.0,9.51,271.0,10.53,12.01,47.59359,-54.27349
2023-01-19 12:14:00+00:00,269.0,9.04,273.0,10.54,12.41,47.59359,-54.27349
2023-01-19 12:24:00+00:00,263.0,9.92,262.0,10.55,12.41,47.59359,-54.27349
2023-01-19 12:34:00+00:00,268.0,8.21,267.0,10.12,12.41,47.59359,-54.27349
2023-01-19 12:44:00+00:00,265.0,9.6,261.0,10.57,12.41,47.59359,-54.27349
2023-01-19 12:54:00+00:00,263.0,10.05,263.0,10.61,12.41,47.59359,-54.27349
2023-01-19 13:04:00+00:00,258.0,9.54,258.0,10.73,12.41,47.59359,-54.27349
2023-01-19 13:14:00+00:00,266.0,9.76,267.0,10.51,12.65,47.59359,-54.27349
2023-01-19 13:24:00+00:00,268.0,9.07,266.0,10.56,12.65,47.59359,-54.27349
2023-01-19 13:34:00+00:00,266.0,9.56,265.0,10.48,12.65,47.59359,-54.27349
2023-01-19 13:44:00+00:00,274.0,9.57,275.0,10.66,12.65,47.59359,-54.27349
2023-01-19 13:54:00+00:00,271.0,8.14,271.0,10.07,12.65,47.59359,-54.27349
2023-01-19 14:04:00+00:00,276.0,9.47,275.0,10.41,12.65,47.59359,-54.27349
2023-01-19 14:14:00+00:00,273.0,9.27,270.0,10.36,13.13,47.59359,-54.27349
2023-01-19 14:24:00+00:00,276.0,7.86,275.0,9.63,13.13,47.59359,-54.27349
2023-01-19 14:34:00+00:00,277.0,4.32,272.0,6.95,13.13,47.59359,-54.27349
2023-01-19 14:44:00+00:00,284.0,4.41,284.0,4.97,13.13,47.59359,-54.27349
2023-01-19 14:54:00+00:00,289.0,4.19,292.0,4.99,13.13,47.59359,-54.27349
2023-01-19 15:04:00+00:00,276.0,9.27,278.0,10.14,13.13,47.59359,-54.27349
2023-01-19 15:14:00+00:00,288.0,4.16,285.0,4.67,13.13,47.59359,-54.27349
2023-01-19 15:24:00+00:00,288.0,7.57,282.0,9.69,13.13,47.59359,-54.27349
2023-01-19 15:34:00+00:00,282.0,5.63,276.0,9.74,13.13,47.59359,-54.27349
2023-01-19 15:44:00+00:00,287.0,5.31,280.0,8.49,13.13,47.59359,-54.27349
2023-01-19 15:54:00+00:00,291.0,5.99,282.0,8.19,13.13,47.59359,-54.27349
2023-01-19 16:04:00+00:00,290.0,5.46,296.0,5.87,13.13,47.59359,-54.27349
2023-01-19 16:14:00+00:00,288.0,5.01,294.0,6.68,13.05,47.59359,-54.27349
2023-01-19 16:24:00+00:00,299.0,5.7,300.0,6.47,13.05,47.59359,-54.27349
2023-01-19 16:34:00+00:00,290.0,5.07,291.0,5.55,13.05,47.59359,-54.27349
2023-01-19 16:44:00+00:00,285.0,4.73,288.0,5.4,13.05,47.59359,-54.27349
2023-01-19 16:54:00+00:00,291.0,4.87,294.0,5.48,13.05,47.59359,-54.27349
2023-01-19 17:04:00+00:00,286.0,4.78,286.0,5.38,13.05,47.59359,-54.27349
2023-01-19 17:14:00+00:00,270.0,4.6,270.0,4.93,12.65,47.59359,-54.27349
2023-01-19 17:24:00+00:00,262.0,5.51,259.0,6.35,12.65,47.59359,-54.27349
2023-01-19 17:34:00+00:00,263.0,6.04,268.0,7.06,12.65,47.59359,-54.27349
2023-01-19 17:44:00+00:00,277.0,4.92,274.0,5.74,12.65,47.59359,-54.27349
2023-01-19 17:54:00+00:00,278.0,5.7,279.0,6.66,12.65,47.59359,-54.27349
2023-01-19 18:04:00+00:00,293.0,4.08,286.0,4.98,12.65,47.59359,-54.27349
2023-01-19 18:14:00+00:00,299.0,5.56,293.0,6.29,12.73,47.59359,-54.27349
2023-01-19 18:24:00+00:00,295.0,4.46,294.0,5.11,12.73,47.59359,-54.27349
2023-01-19 18:34:00+00:00,293.0,4.01,293.0,4.38,12.73,47.59359,-54.27349
2023-01-19 18:44:00+00:00,288.0,4.85,292.0,5.76,12.73,47.59359,-54.27349
2023-01-19 18:54:00+00:00,285.0,5.14,284.0,5.76,12.73,47.59359,-54.27349
2023-01-19 19:04:00+00:00,288.0,4.41,293.0,5.0,12.73,47.59359,-54.27349
2023-01-19 19:14:01+00:00,291.0,3.69,287.0,4.84,12.65,47.59359,-54.27349
2023-01-19 19:24:01+00:00,282.0,4.42,285.0,5.13,12.65,47.59359,-54.27349
2023-01-19 19:34:01+00:00,283.0,5.65,281.0,6.59,12.65,47.59359,-54.27349
2023-01-19 19:44:01+00:00,287.0,5.16,282.0,6.16,12.65,47.59359,-54.27349
2023-01-19 19:54:01+00:00,280.0,4.15,278.0,4.72,12.65,47.59359,-54.27349
2023-01-19 20:04:01+00:00,282.0,4.65,285.0,5.22,12.65,47.59359,-54.27349
2023-01-19 20:14:00+00:00,297.0,3.9,287.0,4.3,12.49,47.59359,-54.27349
2023-01-19 20:24:00+00:00,288.0,4.59,286.0,4.99,12.49,47.59359,-54.27349
2023-01-19 20:34:00+00:00,279.0,3.94,278.0,4.53,12.49,47.59359,-54.27349
2023-01-19 20:44:00+00:00,279.0,3.79,280.0,4.42,12.49,47.59359,-54.27349
2023-01-19 20:54:00+00:00,287.0,4.67,289.0,5.06,12.49,47.59359,-54.27349
2023-01-19 21:04:00+00:00,306.0,4.16,304.0,4.51,12.49,47.59359,-54.27349
2023-01-19 21:14:00+00:00,317.0,5.35,314.0,6.2,12.41,47.59359,-54.27349
2023-01-19 21:24:00+00:00,348.0,4.7,346.0,5.27,12.41,47.59359,-54.27349
2023-01-19 21:34:00+00:00,336.0,3.51,338.0,3.96,12.41,47.59359,-54.27349
2023-01-19 21:44:00+00:00,332.0,3.27,329.0,3.71,12.41,47.59359,-54.27349
2023-01-19 21:54:00+00:00,328.0,2.71,330.0,3.1,12.41,47.59359,-54.27349
2023-01-19 22:04:00+00:00,335.0,2.67,337.0,3.03,12.41,47.59359,-54.27349
2023-01-19 22:14:01+00:00,344.0,5.07,347.0,5.59,12.33,47.59359,-54.27349
2023-01-19 22:24:01+00:00,346.0,4.57,345.0,4.78,12.33,47.59359,-54.27349
2023-01-19 22:34:01+00:00,2.0,4.6,356.0,5.3,12.33,47.59359,-54.27349
2023-01-19 22:44:01+00:00,2.0,6.67,3.0,7.16,12.33,47.59359,-54.27349
2023-01-19 22:54:01+00:00,0.0,5.36,3.0,6.03,12.33,47.59359,-54.27349
2023-01-19 23:04:01+00:00,4.0,5.63,4.0,6.11,12.33,47.59359,-54.27349
2023-01-19 23:14:00+00:00,2.0,6.25,7.0,7.36,12.33,47.59359,-54.27349
2023-01-19 23:24:00+00:00,359.0,5.21,358.0,5.93,12.33,47.59359,-54.27349
2023-01-19 23:34:00+00:00,358.0,5.59,359.0,6.53,12.33,47.59359,-54.27349
2023-01-19 23:44:00+00:00,1.0,6.42,359.0,8.15,12.33,47.59359,-54.27349
2023-01-19 23:54:00+00:00,4.0,7.41,4.0,8.74,12.33,47.59359,-54.27349
